Location: Unspecified
(0.0000°N, 0.0000°E)
Time: 23:31:52
(UTC+00:00)

OTV 5 (USA 277) - Pass Details

Date: 12 February 2018
Orbit: 313 x 320 km, 54.5° (Epoch: 21 June)

Event Time Altitude Azimuth Distance (km) Brightness Sun altitude
Rises 18:56:45 0° 218° (SW) 2,035 ? -10.3°
Reaches altitude 10° 18:58:43 10° 222° (SW) 1,204 ? -10.8°
Maximum altitude 19:01:21 56° 302° (WNW) 374 ? -11.4°
Enters shadow 19:03:51 11° 22° (NNE) 1,150 ? -12.1°
